contact:dominique.lefevre@mio.osupytheas.fr, maurice.libes@osupytheas.fr, didier.mallarino@osupytheas.fr
Project:EMSO http://www.emso-fr.org/EMSO-France
Depth: 2436.0 m
Title:EMSO Ligure Ouest : Data MII capteur AQUADOPP
Date,Latitude,Longitude,X_East,Y_North,Z_Up,Amplitude_X,Amplitude_Y,Amplitude_Z,Batterie,SoundSpeed,Heading,Pitch,Roll,Pressure,TIS,Speed,Direction
, degrees North, degrees East, m.s-1, m.s-1,m.s-1, 1, 1, 1, Volt, m.s-1, degree, degree, degree, dbar, degree_C, m.s-1, degree
2019-09-03T00:09:04,42.805,6.029,-0.014,0.012,-0.027,99.0,107.0,98.0,13.4,1505.3,323.3,-0.8,1.8,2470.211,13.31,0.018,310.6
2019-09-03T00:12:05,42.805,6.029,-0.034,0.028,-0.03,99.0,104.0,98.0,13.4,1505.3,323.2,-0.7,1.8,2470.161,13.33,0.044,309.5
2019-09-03T00:15:06,42.805,6.029,-0.013,-0.013,-0.025,99.0,107.0,97.0,13.4,1505.3,322.8,-0.7,1.8,2470.172,13.33,0.018,225.0
2019-09-03T00:18:07,42.805,6.029,0.0,0.004,-0.024,99.0,106.0,98.0,13.3,1505.4,324.0,-0.7,1.8,2470.158,13.34,0.004,0.0
2019-09-03T00:21:08,42.805,6.029,-0.006,0.014,-0.016,101.0,106.0,98.0,13.4,1505.4,326.8,-0.7,1.8,2470.128,13.34,0.015,336.8
2019-09-03T00:24:09,42.805,6.029,-0.029,0.008,0.0,99.0,106.0,96.0,13.3,1505.4,325.8,-0.7,1.8,2470.163,13.34,0.03,285.4
2019-09-03T00:27:10,42.805,6.029,-0.008,-0.001,-0.039,101.0,107.0,98.0,13.4,1505.4,324.5,-0.8,1.8,2470.144,13.35,0.008,262.9
2019-09-03T00:30:11,42.805,6.029,-0.006,0.031,-0.018,99.0,106.0,96.0,13.3,1505.4,324.9,-0.7,1.8,2470.147,13.35,0.031,349.0
2019-09-03T00:33:12,42.805,6.029,-0.001,0.018,-0.007,100.0,106.0,97.0,13.4,1505.4,328.1,-0.7,1.8,2470.154,13.35,0.018,356.8
2019-09-03T00:36:13,42.805,6.029,-0.018,0.006,-0.029,102.0,103.0,97.0,13.4,1505.4,327.0,-0.7,1.8,2470.142,13.35,0.018,288.4
2019-09-03T00:39:14,42.805,6.029,0.004,-0.005,-0.025,101.0,104.0,97.0,13.4,1505.4,325.9,-0.7,1.8,2470.177,13.35,0.006,141.3
2019-09-03T00:42:15,42.805,6.029,0.011,0.014,0.019,100.0,107.0,97.0,13.3,1505.4,323.9,-0.7,1.8,2470.147,13.35,0.017,38.2
2019-09-03T00:45:16,42.805,6.029,-0.004,0.004,-0.009,100.0,104.0,97.0,13.3,1505.4,323.9,-0.7,1.8,2470.115,13.35,0.005,315.0
2019-09-03T00:48:17,42.805,6.029,-0.034,0.011,-0.033,99.0,105.0,97.0,13.4,1505.4,327.5,-0.7,1.8,2470.137,13.35,0.035,287.9
2019-09-03T00:51:18,42.805,6.029,-0.016,0.005,0.003,98.0,104.0,98.0,13.4,1505.4,328.2,-0.7,1.8,2470.121,13.35,0.016,287.4
2019-09-03T00:54:19,42.805,6.029,-0.012,0.002,-0.021,99.0,105.0,97.0,13.4,1505.4,327.3,-0.7,1.8,2470.081,13.35,0.012,279.5
2019-09-03T00:57:20,42.805,6.029,-0.016,0.005,-0.011,101.0,102.0,97.0,13.4,1505.4,327.6,-0.7,1.8,2470.104,13.35,0.016,287.4
2019-09-03T01:00:21,42.805,6.029,-0.047,0.016,-0.042,99.0,104.0,97.0,13.3,1505.4,328.4,-0.7,1.8,2470.136,13.35,0.049,288.8
2019-09-03T01:03:22,42.805,6.029,-0.041,0.012,-0.03,99.0,105.0,96.0,13.3,1505.4,328.1,-0.7,1.8,2470.133,13.35,0.042,286.3
2019-09-03T01:06:23,42.805,6.029,-0.035,-0.016,-0.029,101.0,103.0,98.0,13.3,1505.4,325.7,-0.7,1.8,2470.087,13.35,0.038,245.4
2019-09-03T01:09:24,42.805,6.029,-0.053,0.002,-0.027,100.0,105.0,97.0,13.3,1505.4,325.2,-0.7,1.8,2470.09,13.35,0.053,272.2
2019-09-03T01:12:25,42.805,6.029,-0.075,0.006,-0.071,99.0,108.0,97.0,13.4,1505.4,324.5,-0.7,1.9,2470.151,13.35,0.075,274.6
2019-09-03T01:15:26,42.805,6.029,-0.021,0.005,-0.015,99.0,108.0,97.0,13.4,1505.4,326.3,-0.7,1.8,2470.111,13.35,0.021,283.4
2019-09-03T01:18:27,42.805,6.029,-0.026,0.001,-0.049,98.0,106.0,98.0,13.4,1505.4,324.6,-0.7,1.8,2470.091,13.35,0.026,272.2
2019-09-03T01:21:28,42.805,6.029,-0.027,-0.013,-0.056,101.0,107.0,97.0,13.4,1505.4,325.4,-0.7,1.8,2470.077,13.35,0.029,244.3
2019-09-03T01:24:29,42.805,6.029,-0.015,0.0,-0.048,101.0,106.0,96.0,13.4,1505.4,324.4,-0.7,1.9,2470.088,13.35,0.015,270.0
2019-09-03T01:27:30,42.805,6.029,-0.013,0.004,-0.031,100.0,104.0,98.0,13.4,1505.4,327.6,-0.7,1.8,2470.08,13.35,0.013,287.1
2019-09-03T01:30:31,42.805,6.029,-0.034,0.007,-0.009,100.0,104.0,97.0,13.4,1505.4,326.7,-0.7,1.8,2470.081,13.35,0.034,281.6
2019-09-03T01:33:32,42.805,6.029,-0.019,-0.024,-0.056,101.0,104.0,98.0,13.4,1505.4,326.7,-0.7,1.8,2470.094,13.35,0.03,218.4
2019-09-03T01:36:33,42.805,6.029,-0.01,-0.004,-0.057,99.0,106.0,99.0,13.4,1505.4,323.7,-0.7,1.9,2470.077,13.35,0.01,248.2
2019-09-03T01:39:34,42.805,6.029,0.002,0.004,-0.006,101.0,106.0,97.0,13.4,1505.4,324.1,-0.7,1.8,2470.075,13.35,0.004,26.6
2019-09-03T01:42:35,42.805,6.029,0.014,0.014,0.002,100.0,106.0,97.0,13.4,1505.4,325.1,-0.7,1.8,2470.072,13.35,0.019,45.0
2019-09-03T01:45:36,42.805,6.029,0.009,0.007,-0.016,99.0,106.0,97.0,13.4,1505.4,326.1,-0.7,1.8,2470.068,13.35,0.011,52.1
2019-09-03T01:48:37,42.805,6.029,-0.015,0.009,0.005,99.0,106.0,99.0,13.4,1505.4,326.8,-0.7,1.8,2470.066,13.34,0.017,301.0
2019-09-03T01:51:38,42.805,6.029,0.0,0.01,-0.021,101.0,106.0,98.0,13.3,1505.4,325.4,-0.7,1.8,2470.036,13.35,0.01,0.0
2019-09-03T01:54:39,42.805,6.029,-0.002,-0.002,-0.006,101.0,106.0,98.0,13.4,1505.4,326.9,-0.7,1.8,2470.081,13.35,0.002,225.0
2019-09-03T01:57:40,42.805,6.029,-0.005,0.01,-0.003,102.0,105.0,99.0,13.3,1505.4,324.3,-0.8,1.8,2470.078,13.35,0.011,333.4
2019-09-03T02:00:41,42.805,6.029,0.006,0.005,0.001,100.0,104.0,98.0,13.4,1505.4,324.3,-0.7,1.8,2470.031,13.35,0.007,50.2
2019-09-03T02:03:42,42.805,6.029,0.005,0.013,-0.017,101.0,106.0,96.0,13.4,1505.4,326.0,-0.7,1.8,2470.083,13.35,0.013,21.0
2019-09-03T02:06:43,42.805,6.029,0.026,0.007,0.02,101.0,105.0,97.0,13.3,1505.4,327.1,-0.7,1.8,2470.068,13.35,0.026,74.9
2019-09-03T02:09:44,42.805,6.029,0.018,-0.005,-0.033,102.0,107.0,97.0,13.3,1505.4,325.1,-0.7,1.8,2470.054,13.35,0.018,105.5
2019-09-03T02:12:45,42.805,6.029,-0.009,0.023,-0.015,102.0,105.0,98.0,13.4,1505.4,324.5,-0.7,1.8,2470.047,13.35,0.024,338.6
2019-09-03T02:15:46,42.805,6.029,-0.014,-0.008,-0.03,101.0,106.0,97.0,13.3,1505.4,323.4,-0.8,1.8,2470.03,13.35,0.016,240.3
2019-09-03T02:18:47,42.805,6.029,-0.024,0.005,-0.021,100.0,106.0,98.0,13.4,1505.4,325.2,-0.7,1.9,2470.082,13.34,0.024,281.8
2019-09-03T02:21:48,42.805,6.029,-0.012,-0.01,0.0,101.0,106.0,97.0,13.3,1505.4,327.2,-0.7,1.8,2470.061,13.34,0.015,230.2
2019-09-03T02:24:49,42.805,6.029,0.03,0.001,0.012,99.0,108.0,96.0,13.4,1505.4,325.6,-0.8,1.8,2470.058,13.35,0.03,88.1
2019-09-03T02:27:50,42.805,6.029,-0.038,-0.004,-0.013,99.0,105.0,97.0,13.4,1505.4,325.9,-0.7,1.8,2470.057,13.35,0.038,264.0
2019-09-03T02:30:51,42.805,6.029,-0.008,-0.007,0.007,99.0,107.0,96.0,13.4,1505.4,326.8,-0.7,1.8,2470.086,13.35,0.01,228.8
2019-09-03T02:33:52,42.805,6.029,0.04,-0.008,0.037,100.0,106.0,96.0,13.3,1505.4,323.5,-0.7,1.9,2470.033,13.35,0.04,101.3
2019-09-03T02:36:53,42.805,6.029,-0.001,0.0,-0.035,99.0,105.0,98.0,13.3,1505.4,327.1,-0.7,1.8,2470.012,13.35,0.001,270.0
2019-09-03T02:39:54,42.805,6.029,0.009,0.006,0.022,102.0,105.0,99.0,13.4,1505.4,326.3,-0.8,1.8,2470.04,13.35,0.01,56.3
2019-09-03T02:42:55,42.805,6.029,-0.018,0.015,-0.009,99.0,105.0,98.0,13.4,1505.4,325.1,-0.7,1.8,2470.007,13.34,0.023,309.8
2019-09-03T02:45:56,42.805,6.029,-0.001,0.006,-0.005,102.0,107.0,98.0,13.3,1505.4,327.5,-0.7,1.9,2470.038,13.35,0.006,350.5
2019-09-03T02:48:57,42.805,6.029,0.008,-0.005,0.003,102.0,104.0,96.0,13.4,1505.4,326.1,-0.7,1.8,2470.015,13.35,0.009,122.0
2019-09-03T02:51:58,42.805,6.029,0.026,0.024,0.011,99.0,105.0,97.0,13.3,1505.4,326.8,-0.7,1.8,2470.039,13.35,0.035,47.3
2019-09-03T02:54:59,42.805,6.029,0.012,0.02,0.012,101.0,106.0,98.0,13.3,1505.4,327.0,-0.7,1.9,2470.047,13.35,0.023,31.0
2019-09-03T02:58:00,42.805,6.029,0.002,0.011,-0.012,101.0,104.0,97.0,13.3,1505.4,326.4,-0.7,1.9,2470.035,13.35,0.011,10.3
2019-09-03T03:01:01,42.805,6.029,-0.021,-0.001,0.002,101.0,106.0,99.0,13.4,1505.4,325.6,-0.7,1.8,2470.038,13.35,0.021,267.3
2019-09-03T03:04:02,42.805,6.029,-0.026,0.004,-0.043,100.0,104.0,97.0,13.4,1505.4,325.8,-0.7,1.8,2470.021,13.35,0.026,278.7
2019-09-03T03:07:03,42.805,6.029,-0.011,-0.014,-0.031,99.0,105.0,98.0,13.4,1505.4,327.1,-0.7,1.8,2469.977,13.35,0.017,218.2
2019-09-03T03:10:04,42.805,6.029,-0.015,-0.007,-0.03,102.0,107.0,97.0,13.3,1505.4,326.3,-0.7,1.8,2470.023,13.35,0.016,245.0
2019-09-03T03:13:05,42.805,6.029,-0.007,-0.002,-0.016,102.0,105.0,97.0,13.4,1505.4,326.4,-0.7,1.8,2469.983,13.35,0.007,254.1
2019-09-03T03:16:06,42.805,6.029,0.003,-0.003,-0.002,101.0,106.0,98.0,13.4,1505.4,325.8,-0.7,1.8,2470.015,13.35,0.004,135.0
2019-09-03T03:19:07,42.805,6.029,-0.022,0.01,0.004,100.0,104.0,98.0,13.3,1505.4,324.3,-0.8,1.8,2469.965,13.35,0.024,294.4
2019-09-03T03:22:08,42.805,6.029,0.001,0.01,0.01,100.0,103.0,99.0,13.3,1505.4,324.0,-0.7,1.8,2469.989,13.35,0.01,5.7
2019-09-03T03:25:09,42.805,6.029,0.015,0.017,0.042,100.0,104.0,97.0,13.3,1505.4,327.2,-0.7,1.8,2469.988,13.35,0.022,41.4
2019-09-03T03:28:10,42.805,6.029,-0.006,-0.013,-0.032,100.0,104.0,98.0,13.3,1505.4,327.4,-0.8,1.8,2470.006,13.35,0.014,204.8
2019-09-03T03:31:11,42.805,6.029,-0.015,0.014,-0.027,102.0,102.0,98.0,13.3,1505.4,327.8,-0.7,1.8,2469.986,13.35,0.02,313.0
2019-09-03T03:34:12,42.805,6.029,-0.003,0.008,-0.007,101.0,103.0,96.0,13.3,1505.4,326.0,-0.7,1.8,2469.989,13.35,0.008,339.4
2019-09-03T03:37:13,42.805,6.029,-0.013,0.009,-0.024,100.0,104.0,97.0,13.4,1505.4,327.6,-0.7,1.9,2469.986,13.35,0.015,304.7
2019-09-03T03:40:14,42.805,6.029,0.0,-0.008,-0.038,101.0,102.0,98.0,13.4,1505.4,328.1,-0.7,1.8,2469.941,13.35,0.008,180.0
2019-09-03T03:43:15,42.805,6.029,-0.003,0.002,-0.031,98.0,105.0,97.0,13.4,1505.4,327.4,-0.7,1.8,2470.0,13.35,0.003,303.7
2019-09-03T03:46:16,42.805,6.029,-0.023,-0.009,-0.014,100.0,104.0,98.0,13.4,1505.4,325.4,-0.7,1.8,2469.983,13.35,0.024,248.6
2019-09-03T03:49:17,42.805,6.029,-0.018,0.02,-0.015,100.0,105.0,98.0,13.4,1505.4,327.1,-0.7,1.8,2469.982,13.35,0.026,318.0
2019-09-03T03:52:18,42.805,6.029,-0.02,-0.009,-0.037,99.0,104.0,97.0,13.4,1505.4,325.2,-0.7,1.8,2469.922,13.35,0.021,245.8
2019-09-03T03:55:19,42.805,6.029,-0.015,0.012,-0.015,98.0,104.0,98.0,13.4,1505.4,323.2,-0.8,1.8,2469.967,13.35,0.019,308.7
2019-09-03T03:58:20,42.805,6.029,-0.013,-0.002,-0.018,100.0,102.0,98.0,13.3,1505.4,326.9,-0.7,1.8,2470.004,13.35,0.013,261.3
2019-09-03T04:01:21,42.805,6.029,-0.006,0.008,-0.031,98.0,103.0,97.0,13.3,1505.4,328.1,-0.7,1.8,2469.96,13.35,0.01,323.1
2019-09-03T04:04:22,42.805,6.029,-0.002,-0.027,-0.016,101.0,105.0,98.0,13.3,1505.4,325.2,-0.7,1.8,2469.973,13.35,0.027,184.2
2019-09-03T04:07:23,42.805,6.029,-0.022,0.0,-0.024,98.0,105.0,97.0,13.4,1505.4,324.5,-0.7,1.8,2470.014,13.35,0.022,270.0
2019-09-03T04:10:24,42.805,6.029,0.02,-0.002,0.004,99.0,108.0,99.0,13.4,1505.4,325.0,-0.7,1.8,2469.975,13.35,0.02,95.7
2019-09-03T04:13:25,42.805,6.029,0.013,0.0,-0.005,100.0,106.0,97.0,13.4,1505.4,326.6,-0.7,1.8,2469.938,13.35,0.013,90.0
2019-09-03T04:16:26,42.805,6.029,0.005,-0.012,-0.01,101.0,104.0,97.0,13.4,1505.4,325.1,-0.7,1.8,2470.004,13.35,0.013,157.4
2019-09-03T04:19:27,42.805,6.029,0.007,-0.005,-0.013,99.0,106.0,98.0,13.4,1505.4,327.0,-0.7,1.8,2469.972,13.35,0.008,125.5
2019-09-03T04:22:28,42.805,6.029,0.008,-0.01,-0.003,100.0,108.0,98.0,13.4,1505.4,324.9,-0.7,1.8,2469.957,13.35,0.012,141.3
2019-09-03T04:25:29,42.805,6.029,-0.022,0.008,-0.014,100.0,107.0,98.0,13.4,1505.4,327.0,-0.7,1.9,2469.987,13.35,0.023,290.0
2019-09-03T04:28:30,42.805,6.029,-0.029,0.019,-0.016,100.0,106.0,97.0,13.3,1505.4,323.4,-0.7,1.8,2469.97,13.35,0.034,303.2
2019-09-03T04:31:31,42.805,6.029,0.001,-0.002,0.0,99.0,107.0,98.0,13.4,1505.4,327.9,-0.7,1.8,2469.929,13.35,0.002,153.4
2019-09-03T04:34:32,42.805,6.029,-0.018,0.003,-0.01,102.0,104.0,98.0,13.4,1505.4,325.5,-0.7,1.9,2469.957,13.34,0.018,279.5
2019-09-03T04:37:33,42.805,6.029,-0.011,0.004,-0.038,99.0,104.0,98.0,13.4,1505.4,325.9,-0.7,1.8,2469.979,13.35,0.011,290.0
2019-09-03T04:40:34,42.805,6.029,0.005,-0.007,-0.031,100.0,105.0,96.0,13.4,1505.4,323.7,-0.7,1.8,2469.987,13.35,0.008,144.5
2019-09-03T04:43:35,42.805,6.029,-0.011,-0.006,-0.011,100.0,108.0,97.0,13.4,1505.4,325.9,-0.7,1.8,2469.975,13.35,0.012,241.4
2019-09-03T04:46:36,42.805,6.029,-0.006,0.002,-0.009,100.0,105.0,98.0,13.4,1505.4,323.5,-0.7,1.8,2469.969,13.35,0.006,288.4
2019-09-03T04:49:37,42.805,6.029,-0.016,0.008,-0.009,100.0,106.0,97.0,13.3,1505.4,324.4,-0.7,1.8,2469.962,13.35,0.017,296.6
2019-09-03T04:52:38,42.805,6.029,-0.041,0.022,-0.02,101.0,105.0,97.0,13.4,1505.4,326.9,-0.7,1.8,2470.001,13.35,0.046,298.2
2019-09-03T04:55:39,42.805,6.029,-0.037,-0.019,-0.031,102.0,105.0,97.0,13.4,1505.4,327.8,-0.7,1.8,2469.962,13.35,0.041,242.8
2019-09-03T04:58:40,42.805,6.029,-0.015,0.0,-0.034,101.0,106.0,97.0,13.3,1505.4,326.7,-0.7,1.8,2470.027,13.35,0.015,270.0
2019-09-03T05:01:41,42.805,6.029,0.0,0.005,-0.022,100.0,106.0,97.0,13.4,1505.4,327.2,-0.8,1.9,2469.985,13.35,0.005,0.0
2019-09-03T05:04:42,42.805,6.029,-0.02,0.015,-0.028,101.0,109.0,98.0,13.3,1505.4,326.2,-0.7,1.8,2469.967,13.35,0.025,306.9
2019-09-03T05:07:43,42.805,6.029,0.004,-0.001,0.002,99.0,103.0,98.0,13.4,1505.4,324.8,-0.7,1.9,2469.967,13.35,0.004,104.0
2019-09-03T05:10:44,42.805,6.029,0.032,0.021,0.007,99.0,107.0,98.0,13.4,1505.4,323.5,-0.8,1.9,2469.994,13.35,0.038,56.7
2019-09-03T05:13:45,42.805,6.029,-0.011,-0.007,-0.014,98.0,107.0,98.0,13.4,1505.4,327.0,-0.7,1.9,2469.946,13.35,0.013,237.5
2019-09-03T05:16:46,42.805,6.029,0.004,0.012,-0.02,104.0,105.0,97.0,13.4,1505.4,326.1,-0.7,1.8,2469.967,13.35,0.012,18.4
2019-09-03T05:19:47,42.805,6.029,0.007,0.003,-0.017,103.0,107.0,97.0,13.4,1505.4,324.3,-0.8,1.8,2469.962,13.35,0.007,66.8
2019-09-03T05:22:48,42.805,6.029,-0.011,-0.024,-0.02,101.0,106.0,96.0,13.4,1505.4,323.8,-0.7,1.9,2469.955,13.35,0.026,204.6
2019-09-03T05:25:49,42.805,6.029,0.002,0.006,-0.026,101.0,105.0,97.0,13.3,1505.4,323.5,-0.7,1.8,2470.017,13.35,0.006,18.4
2019-09-03T05:28:50,42.805,6.029,-0.04,0.002,-0.032,102.0,104.0,97.0,13.3,1505.4,323.2,-0.7,1.8,2469.986,13.35,0.04,272.9
2019-09-03T05:31:51,42.805,6.029,-0.01,0.006,-0.028,101.0,106.0,97.0,13.4,1505.4,324.9,-0.7,1.8,2469.989,13.35,0.011,301.0
2019-09-03T05:34:52,42.805,6.029,-0.005,-0.006,-0.003,100.0,107.0,100.0,13.4,1505.4,325.7,-0.7,1.9,2470.01,13.35,0.007,219.8
2019-09-03T05:37:53,42.805,6.029,-0.033,0.012,-0.02,101.0,106.0,98.0,13.3,1505.4,328.5,-0.7,1.8,2470.016,13.35,0.035,290.0
2019-09-03T05:40:54,42.805,6.029,-0.011,-0.003,-0.011,102.0,106.0,98.0,13.3,1505.4,328.5,-0.7,1.8,2470.018,13.35,0.011,254.7
2019-09-03T05:43:55,42.805,6.029,0.015,-0.003,0.025,102.0,106.0,98.0,13.4,1505.4,325.0,-0.7,1.8,2469.956,13.35,0.015,101.3
2019-09-03T05:46:56,42.805,6.029,-0.008,-0.001,-0.017,101.0,103.0,99.0,13.3,1505.4,326.9,-0.7,1.9,2469.984,13.35,0.008,262.9
2019-09-03T05:49:57,42.805,6.029,0.011,0.014,0.011,100.0,104.0,97.0,13.4,1505.4,327.1,-0.8,1.9,2469.999,13.35,0.017,38.2
2019-09-03T05:52:58,42.805,6.029,-0.019,-0.004,-0.005,98.0,107.0,97.0,13.4,1505.4,323.5,-0.7,1.8,2469.991,13.35,0.019,258.1
2019-09-03T05:55:59,42.805,6.029,-0.01,0.003,0.006,101.0,105.0,99.0,13.3,1505.4,324.7,-0.7,1.8,2469.983,13.35,0.01,286.7
2019-09-03T05:59:00,42.805,6.029,-0.005,0.022,-0.021,101.0,105.0,99.0,13.4,1505.4,325.2,-0.7,1.8,2470.006,13.35,0.022,347.2
2019-09-03T06:02:01,42.805,6.029,0.003,0.015,0.007,101.0,107.0,98.0,13.4,1505.4,326.7,-0.7,1.8,2469.996,13.35,0.015,11.3
2019-09-03T06:05:02,42.805,6.029,-0.004,0.014,-0.034,100.0,105.0,97.0,13.4,1505.4,325.0,-0.7,1.8,2470.021,13.35,0.014,344.1
2019-09-03T06:08:03,42.805,6.029,0.02,0.001,0.04,101.0,107.0,96.0,13.4,1505.4,328.1,-0.7,1.8,2470.011,13.35,0.02,87.1
2019-09-03T06:11:04,42.805,6.029,-0.005,-0.001,-0.012,101.0,108.0,98.0,13.4,1505.4,326.7,-0.7,1.8,2470.008,13.35,0.005,258.7
2019-09-03T06:14:05,42.805,6.029,-0.038,0.008,-0.027,101.0,108.0,96.0,13.4,1505.4,326.5,-0.7,1.8,2470.006,13.34,0.038,281.9
2019-09-03T06:17:06,42.805,6.029,-0.008,0.011,-0.015,102.0,108.0,98.0,13.4,1505.4,326.3,-0.7,1.8,2470.018,13.35,0.013,324.0
2019-09-03T06:20:07,42.805,6.029,-0.008,0.0,-0.014,101.0,107.0,97.0,13.4,1505.4,325.3,-0.7,1.9,2470.014,13.34,0.008,270.0
2019-09-03T06:23:08,42.805,6.029,-0.02,0.01,-0.064,101.0,109.0,97.0,13.4,1505.4,326.0,-0.7,1.8,2470.041,13.34,0.022,296.6
2019-09-03T06:26:09,42.805,6.029,-0.016,0.009,-0.017,100.0,107.0,98.0,13.4,1505.4,326.2,-0.7,1.8,2470.031,13.34,0.018,299.4
2019-09-03T06:29:10,42.805,6.029,-0.009,-0.015,-0.031,102.0,107.0,98.0,13.4,1505.4,324.0,-0.7,1.8,2470.024,13.34,0.017,211.0
2019-09-03T06:32:11,42.805,6.029,0.001,0.009,-0.034,100.0,108.0,98.0,13.3,1505.4,323.3,-0.7,1.8,2470.005,13.34,0.009,6.3
2019-09-03T06:35:12,42.805,6.029,-0.046,0.004,-0.025,101.0,107.0,99.0,13.4,1505.4,323.5,-0.7,1.8,2470.013,13.34,0.046,275.0
2019-09-03T06:38:13,42.805,6.029,-0.002,0.0,-0.049,100.0,108.0,97.0,13.3,1505.4,324.9,-0.7,1.8,2470.053,13.35,0.002,270.0
2019-09-03T06:41:14,42.805,6.029,-0.015,-0.007,-0.014,101.0,106.0,98.0,13.4,1505.4,327.9,-0.7,1.8,2470.033,13.35,0.016,245.0
2019-09-03T06:44:15,42.805,6.029,-0.028,0.008,-0.045,98.0,108.0,99.0,13.3,1505.4,328.1,-0.8,1.8,2470.055,13.35,0.029,285.9
2019-09-03T06:47:16,42.805,6.029,-0.014,0.0,-0.02,102.0,110.0,97.0,13.3,1505.4,325.0,-0.7,1.8,2470.074,13.35,0.014,270.0
2019-09-03T06:50:17,42.805,6.029,0.008,-0.015,-0.034,103.0,106.0,97.0,13.4,1505.4,324.1,-0.7,1.8,2470.019,13.35,0.017,151.9
2019-09-03T06:53:18,42.805,6.029,0.004,0.001,-0.057,100.0,107.0,97.0,13.4,1505.4,327.2,-0.6,1.8,2470.047,13.35,0.004,76.0
2019-09-03T06:56:19,42.805,6.029,-0.012,0.014,0.004,101.0,107.0,98.0,13.4,1505.4,324.0,-0.7,1.9,2470.038,13.35,0.018,319.4
2019-09-03T06:59:20,42.805,6.029,-0.004,0.017,0.0,100.0,106.0,98.0,13.4,1505.4,325.5,-0.7,1.8,2470.049,13.35,0.017,346.8
2019-09-03T07:02:21,42.805,6.029,-0.01,0.02,-0.012,103.0,107.0,98.0,13.3,1505.4,326.8,-0.7,1.8,2470.058,13.35,0.022,333.4
2019-09-03T07:05:22,42.805,6.029,-0.009,-0.001,-0.025,102.0,108.0,98.0,13.4,1505.4,324.0,-0.7,1.8,2470.097,13.35,0.009,263.7
2019-09-03T07:08:23,42.805,6.029,0.002,-0.006,-0.026,101.0,106.0,97.0,13.4,1505.4,324.6,-0.7,1.8,2470.021,13.35,0.006,161.6
2019-09-03T07:11:24,42.805,6.029,-0.002,0.008,-0.027,102.0,106.0,99.0,13.4,1505.4,324.6,-0.7,1.8,2470.073,13.35,0.008,346.0
2019-09-03T07:14:25,42.805,6.029,-0.004,-0.003,-0.016,104.0,108.0,97.0,13.4,1505.4,326.1,-0.7,1.8,2470.097,13.35,0.005,233.1
2019-09-03T07:17:26,42.805,6.029,-0.026,-0.021,-0.057,103.0,107.0,98.0,13.3,1505.4,325.5,-0.7,1.8,2470.036,13.35,0.033,231.1
2019-09-03T07:20:27,42.805,6.029,-0.005,0.0,-0.02,101.0,107.0,98.0,13.3,1505.4,328.5,-0.7,1.9,2470.076,13.35,0.005,270.0
2019-09-03T07:23:28,42.805,6.029,0.016,0.0,-0.012,103.0,107.0,97.0,13.4,1505.4,327.5,-0.7,1.9,2470.084,13.35,0.016,90.0
2019-09-03T07:26:29,42.805,6.029,0.001,0.009,-0.013,99.0,108.0,98.0,13.3,1505.4,326.8,-0.7,1.8,2470.094,13.35,0.009,6.3
2019-09-03T07:29:30,42.805,6.029,-0.01,-0.003,-0.05,100.0,109.0,97.0,13.4,1505.4,328.4,-0.7,1.8,2470.075,13.35,0.01,253.3
2019-09-03T07:32:31,42.805,6.029,-0.002,0.009,-0.006,101.0,108.0,98.0,13.4,1505.4,327.4,-0.7,1.8,2470.099,13.35,0.009,347.5
2019-09-03T07:35:32,42.805,6.029,-0.003,0.008,0.0,102.0,107.0,97.0,13.4,1505.4,327.7,-0.7,1.8,2470.108,13.35,0.008,339.4
2019-09-03T07:38:33,42.805,6.029,0.011,0.003,-0.003,100.0,107.0,98.0,13.3,1505.4,325.6,-0.7,1.8,2470.112,13.35,0.011,74.7
2019-09-03T07:41:34,42.805,6.029,-0.013,0.015,-0.023,102.0,108.0,98.0,13.4,1505.4,324.8,-0.7,1.8,2470.082,13.35,0.019,319.1
2019-09-03T07:44:35,42.805,6.029,0.013,-0.01,-0.005,102.0,108.0,97.0,13.4,1505.4,323.8,-0.7,1.8,2470.114,13.35,0.016,127.6
2019-09-03T07:47:36,42.805,6.029,-0.028,-0.006,-0.059,101.0,108.0,98.0,13.4,1505.4,323.2,-0.7,1.8,2470.133,13.35,0.028,257.9
2019-09-03T07:50:37,42.805,6.029,-0.016,0.012,-0.007,100.0,110.0,97.0,13.3,1505.4,322.9,-0.7,1.9,2470.113,13.35,0.02,306.9
2019-09-03T07:53:38,42.805,6.029,-0.022,-0.003,0.002,99.0,106.0,98.0,13.4,1505.4,323.6,-0.7,1.8,2470.115,13.35,0.022,262.2
2019-09-03T07:56:39,42.805,6.029,-0.003,0.0,0.001,98.0,107.0,98.0,13.3,1505.4,327.5,-0.7,1.8,2470.152,13.35,0.003,270.0
2019-09-03T07:59:40,42.805,6.029,-0.005,0.003,-0.014,99.0,106.0,97.0,13.4,1505.4,327.7,-0.7,1.8,2470.082,13.35,0.005,301.0
2019-09-03T08:02:41,42.805,6.029,-0.01,-0.001,-0.015,100.0,107.0,99.0,13.4,1505.4,327.2,-0.7,1.9,2470.112,13.35,0.01,264.3
2019-09-03T08:05:42,42.805,6.029,-0.012,0.008,0.001,101.0,109.0,100.0,13.4,1505.4,327.7,-0.7,1.9,2470.141,13.35,0.014,303.7
2019-09-03T08:08:43,42.805,6.029,-0.022,-0.006,-0.04,103.0,107.0,96.0,13.4,1505.4,327.6,-0.7,1.8,2470.137,13.35,0.022,254.7
2019-09-03T08:11:44,42.805,6.029,-0.001,-0.009,-0.016,99.0,108.0,98.0,13.4,1505.4,328.0,-0.7,1.9,2470.138,13.35,0.009,186.3
2019-09-03T08:14:45,42.805,6.029,0.001,0.014,0.003,100.0,108.0,97.0,13.4,1505.4,327.9,-0.7,1.8,2470.181,13.35,0.014,4.1
2019-09-03T08:17:46,42.805,6.029,0.004,-0.009,-0.023,102.0,106.0,99.0,13.3,1505.4,328.2,-0.7,1.9,2470.094,13.35,0.009,156.0
2019-09-03T08:20:47,42.805,6.029,-0.013,0.018,-0.024,99.0,107.0,97.0,13.4,1505.4,328.2,-0.7,1.8,2470.156,13.35,0.022,324.2
2019-09-03T08:23:48,42.805,6.029,-0.025,0.008,-0.046,101.0,108.0,98.0,13.4,1505.4,327.8,-0.7,1.8,2470.168,13.35,0.026,287.7
2019-09-03T08:26:49,42.805,6.029,-0.014,0.009,-0.015,101.0,106.0,97.0,13.4,1505.4,327.0,-0.7,1.8,2470.158,13.35,0.016,302.7
2019-09-03T08:29:50,42.805,6.029,-0.028,0.009,-0.009,100.0,106.0,98.0,13.4,1505.4,324.3,-0.7,1.8,2470.131,13.35,0.029,287.8
2019-09-03T08:32:51,42.805,6.029,-0.031,-0.011,-0.025,101.0,107.0,97.0,13.4,1505.4,326.2,-0.7,1.8,2470.186,13.35,0.032,250.5
2019-09-03T08:35:52,42.805,6.029,-0.012,-0.005,-0.01,103.0,105.0,98.0,13.3,1505.4,324.6,-0.7,1.8,2470.147,13.35,0.013,247.4
2019-09-03T08:38:53,42.805,6.029,-0.001,0.014,-0.037,103.0,106.0,99.0,13.4,1505.4,324.3,-0.7,1.8,2470.111,13.35,0.014,355.9
2019-09-03T08:41:54,42.805,6.029,0.008,0.01,-0.003,100.0,107.0,99.0,13.4,1505.4,326.1,-0.7,1.8,2470.165,13.35,0.012,38.7
2019-09-03T08:44:55,42.805,6.029,0.0,0.013,-0.007,103.0,105.0,97.0,13.4,1505.4,326.3,-0.7,1.9,2470.184,13.35,0.013,0.0
2019-09-03T08:47:56,42.805,6.029,-0.002,0.0,0.014,100.0,108.0,98.0,13.4,1505.4,323.5,-0.7,1.9,2470.201,13.35,0.002,270.0
2019-09-03T08:50:57,42.805,6.029,-0.015,0.007,-0.008,106.0,105.0,96.0,13.3,1505.4,326.0,-0.7,1.8,2470.157,13.35,0.016,295.0
2019-09-03T08:53:58,42.805,6.029,0.003,0.017,-0.025,100.0,107.0,98.0,13.3,1505.4,324.9,-0.7,1.8,2470.164,13.35,0.017,10.0
2019-09-03T08:56:59,42.805,6.029,-0.023,0.001,-0.003,102.0,105.0,100.0,13.3,1505.4,326.5,-0.7,1.8,2470.182,13.35,0.023,272.5
2019-09-03T09:00:00,42.805,6.029,-0.032,0.009,-0.04,100.0,108.0,98.0,13.4,1505.4,323.2,-0.7,1.8,2470.149,13.35,0.033,285.7
2019-09-03T09:03:01,42.805,6.029,-0.015,-0.009,-0.032,99.0,106.0,97.0,13.4,1505.4,324.1,-0.7,1.8,2470.202,13.35,0.017,239.0
2019-09-03T09:06:02,42.805,6.029,0.007,-0.024,0.025,100.0,107.0,97.0,13.3,1505.4,326.0,-0.7,1.9,2470.166,13.35,0.025,163.7
2019-09-03T09:09:03,42.805,6.029,-0.014,-0.001,-0.016,100.0,107.0,99.0,13.4,1505.4,327.6,-0.7,1.8,2470.187,13.35,0.014,265.9
2019-09-03T09:12:04,42.805,6.029,-0.005,0.013,-0.006,103.0,107.0,97.0,13.4,1505.4,325.4,-0.7,1.8,2470.139,13.35,0.013,339.0
2019-09-03T09:15:05,42.805,6.029,-0.017,0.0,-0.016,101.0,108.0,97.0,13.3,1505.4,324.1,-0.7,1.8,2470.191,13.34,0.017,270.0
2019-09-03T09:18:06,42.805,6.029,-0.008,-0.002,0.007,100.0,107.0,97.0,13.4,1505.4,324.1,-0.7,1.8,2470.193,13.34,0.008,256.0
2019-09-03T09:21:08,42.805,6.029,0.0,0.03,-0.008,101.0,107.0,98.0,13.4,1505.4,324.8,-0.7,1.8,2470.166,13.34,0.03,0.0
2019-09-03T09:24:08,42.805,6.029,0.015,-0.007,0.007,101.0,108.0,98.0,13.4,1505.4,325.3,-0.7,1.8,2470.167,13.34,0.016,115.0
2019-09-03T09:27:09,42.805,6.029,-0.021,0.012,-0.015,101.0,108.0,98.0,13.3,1505.4,326.2,-0.7,1.8,2470.183,13.34,0.024,299.7
2019-09-03T09:30:10,42.805,6.029,-0.014,0.012,-0.036,102.0,107.0,98.0,13.4,1505.4,326.8,-0.7,1.8,2470.122,13.34,0.018,310.6
2019-09-03T09:33:11,42.805,6.029,-0.02,-0.006,-0.008,101.0,108.0,99.0,13.3,1505.4,328.1,-0.7,1.9,2470.149,13.34,0.02,253.3
2019-09-03T09:36:12,42.805,6.029,-0.024,0.012,-0.031,101.0,109.0,98.0,13.3,1505.4,325.5,-0.7,1.8,2470.173,13.34,0.026,296.6
2019-09-03T09:39:13,42.805,6.029,0.0,-0.004,0.013,100.0,108.0,98.0,13.3,1505.4,326.7,-0.7,1.8,2470.164,13.34,0.004,180.0
2019-09-03T09:42:14,42.805,6.029,-0.027,-0.013,-0.053,101.0,108.0,98.0,13.4,1505.4,324.8,-0.7,1.8,2470.164,13.34,0.029,244.3